Theta_e
325 326 327 328 328 328 329 329 329 330 330 331 331 333 334 334 334 333 334 334 333 330 328 326 325 325 325 324 323 323 325 327 328 328 329 330 331 330 330 330 330 331 333 332 331 335 336 334 334 333 332 334 333 332 331 328 327 327 326 327 326 325 325 324 321 323 321 321 321 322 323 324 328 329 326 327 328 327 326 325 324 324 324 325 326
324 324 325 326 326 326 326 327 327 326 327 328 329 330 331 331 331 330 330 329 330 330 329 328 326 326 326 325 324 324 325 325 325 326 329 330 329 328 329 328 328 329 331 330 331 330 330 331 333 333 331 331 332 333 332 332 329 327 325 325 324 325 324 324 322 323 318 318 317 317 318 320 324 326 326 327 327 327 327 327 325 324 324 325 326
320 321 323 324 324 324 324 324 324 325 326 327 328 328 328 328 328 328 328 329 329 331 329 326 328 330 327 326 326 326 327 326 326 328 330 330 328 327 328 327 329 330 329 330 329 329 329 328 330 330 330 331 332 332 332 331 328 327 325 326 326 323 322 324 324 324 320 316 317 316 315 314 316 319 323 326 328 328 327 326 327 326 325 326 326
318 319 319 321 323 322 322 322 323 324 324 325 326 325 326 327 326 326 327 327 328 330 330 329 330 328 329 328 328 326 326 330 327 328 326 326 328 326 327 328 328 327 328 329 329 327 327 327 328 328 330 331 330 329 330 330 329 329 328 327 326 323 322 322 325 324 324 318 315 317 316 313 312 315 317 322 327 327 327 327 327 328 328 327 327
316 317 319 319 320 320 320 321 322 322 323 323 324 324 325 325 326 326 326 326 327 328 328 329 329 328 327 327 327 326 326 327 328 328 328 329 329 327 328 328 329 328 328 328 330 329 328 328 327 330 332 331 331 329 328 328 330 329 328 326 325 325 324 323 322 325 324 325 320 313 312 312 314 315 315 318 323 324 326 328 328 328 328 328 328
317 317 318 319 319 319 319 320 321 321 322 323 324 325 324 325 325 325 325 326 326 326 327 328 327 326 325 324 323 323 322 323 325 325 326 327 326 327 328 328 328 327 327 327 328 331 329 329 329 332 333 332 331 329 328 328 329 329 328 327 326 327 325 324 323 325 326 324 324 324 322 316 313 314 314 311 315 324 325 327 328 328 328 328 328
317 317 318 317 318 318 318 318 319 320 321 323 322 323 323 323 323 324 324 324 326 325 325 326 325 325 325 325 325 324 322 322 325 326 326 328 327 327 327 328 329 329 328 327 327 328 328 328 328 330 333 333 332 330 329 328 328 329 329 328 328 328 326 322 323 324 323 325 326 325 324 324 322 317 313 314 313 313 321 324 326 328 328 328 328
316 316 316 317 317 317 317 317 318 320 321 321 321 321 321 321 321 322 323 324 323 324 325 325 322 322 323 323 324 324 324 324 325 325 326 327 325 325 326 327 328 329 328 328 327 328 328 327 326 327 329 331 331 330 329 329 329 329 330 330 330 328 327 325 324 325 322 323 325 324 324 324 324 322 321 318 315 313 314 318 323 325 326 327 328
316 314 314 315 315 316 317 317 318 319 319 319 319 319 319 320 321 321 321 321 322 324 324 323 324 322 322 322 321 323 325 324 325 324 323 324 322 323 324 325 325 326 327 326 326 327 328 327 328 327 327 329 331 329 329 330 330 329 329 329 329 329 328 327 326 325 325 324 323 323 324 323 323 323 323 321 317 314 315 316 317 321 324 325 326
315 314 314 314 315 315 316 316 316 317 318 319 318 318 318 317 317 317 317 319 320 320 321 321 322 323 321 320 320 320 321 322 321 320 321 322 321 321 321 322 322 323 324 324 324 325 325 326 327 328 328 328 330 330 330 330 329 329 329 329 329 328 329 328 326 326 326 326 325 324 321 322 322 321 321 320 320 320 316 316 317 318 318 322 325
313 313 313 313 314 315 315 314 315 315 316 317 317 316 316 316 315 315 316 317 318 317 317 317 318 320 319 318 317 316 316 316 315 316 317 318 318 318 318 318 318 319 320 321 320 321 322 324 325 327 328 329 329 329 329 329 330 330 330 329 329 328 328 328 327 326 326 325 325 324 323 322 320 319 320 321 320 318 317 317 318 319 319 320 323
312 312 312 312 312 313 314 313 314 314 314 315 315 315 315 315 315 314 314 315 315 315 315 314 315 316 317 316 315 314 313 313 312 312 313 314 315 315 315 316 315 316 316 316 316 318 318 319 321 323 323 323 324 326 328 329 329 329 329 329 329 329 329 328 327 327 327 326 325 325 325 324 323 322 322 322 321 320 319 318 318 319 320 321 323
311 311 311 311 311 311 312 312 313 312 312 313 314 314 314 313 313 312 312 313 313 312 311 311 311 312 313 313 313 313 311 310 310 309 310 311 312 312 312 312 312 312 313 313 313 314 315 316 318 317 315 316 316 317 319 323 327 328 328 328 328 327 327 327 326 326 327 326 325 325 325 325 324 325 324 323 323 323 321 318 320 321 318 318 321
310 311 311 311 311 311 311 312 312 312 312 313 313 313 312 312 311 311 310 311 311 310 310 310 310 310 311 311 311 311 310 310 310 309 309 309 309 309 309 310 310 309 310 310 310 311 312 315 316 311 310 311 312 311 313 315 316 321 325 326 326 327 328 327 327 327 327 327 327 325 325 325 325 325 325 325 323 322 320 319 319 320 320 319 319
310 310 310 310 310 310 311 311 312 312 312 312 312 312 311 310 310 309 309 310 310 309 309 309 309 309 309 309 310 310 309 308 308 310 309 308 307 307 307 308 307 307 307 308 309 309 311 312 309 308 307 308 308 307 309 308 310 314 318 321 325 326 326 326 326 327 326 327 327 326 326 325 325 326 326 325 326 324 322 322 319 316 316 317 317
309 309 309 309 310 310 311 310 311 310 310 310 310 310 309 309 309 309 309 309 309 309 308 308 308 309 308 308 308 309 310 307 307 308 307 307 305 305 305 305 305 306 306 308 308 308 309 309 305 305 306 305 305 304 305 304 306 309 310 312 315 318 319 323 326 327 326 326 326 327 326 325 326 326 326 326 326 326 325 324 322 319 316 313 316
305 306 307 308 309 309 310 309 309 309 309 309 308 309 309 310 309 308 308 308 308 308 307 307 307 307 307 307 307 306 306 305 305 306 305 305 305 304 303 304 304 305 305 307 305 306 308 308 304 303 303 303 303 303 303 302 303 304 305 307 308 309 311 314 319 323 325 327 326 326 326 326 326 327 327 326 326 326 326 325 325 322 319 315 314
307 308 309 309 308 308 308 308 308 308 307 307 307 308 308 309 309 307 307 306 306 307 307 306 306 306 306 306 305 305 305 305 305 305 305 304 303 303 303 302 302 304 305 305 305 305 306 308 304 302 302 302 301 301 301 301 301 302 302 303 303 305 307 309 312 316 319 323 325 326 326 325 326 326 326 326 326 326 325 325 324 324 323 318 317
307 307 307 307 306 307 307 306 307 307 307 307 307 307 307 307 308 307 305 306 306 306 306 306 306 306 306 306 305 305 305 305 305 305 304 303 302 302 302 302 302 303 303 303 303 303 304 305 304 301 301 300 300 300 300 299 299 299 300 300 301 302 302 303 306 309 312 317 320 322 325 325 326 326 326 326 327 326 326 326 325 325 324 322 320
306 306 306 306 305 305 305 305 305 305 306 306 307 307 306 306 307 306 306 305 305 305 305 304 305 305 305 305 305 305 305 304 304 304 303 302 302 302 302 301 301 302 301 301 301 301 302 303 303 301 300 299 299 299 298 298 298 297 298 298 299 299 299 300 302 304 307 311 314 317 321 324 325 325 325 325 325 326 326 325 325 324 324 324 322
304 304 304 304 304 303 303 304 304 304 305 305 306 306 306 305 305 305 304 304 304 304 304 304 304 304 304 303 303 304 304 305 305 305 304 303 303 303 302 302 302 301 301 300 300 300 301 302 301 300 298 297 297 297 297 297 296 296 296 297 297 298 297 298 300 300 302 304 307 310 313 319 323 323 324 325 325 326 326 326 325 325 323 324 323
302 303 303 302 302 302 302 302 301 300 301 302 305 306 305 304 304 304 304 304 303 303 303 303 303 302 302 302 302 303 304 304 305 306 306 305 303 302 302 301 300 301 301 300 299 300 301 301 300 298 297 297 296 296 296 296 295 295 295 296 296 296 296 297 298 298 299 301 302 304 308 312 318 321 322 323 325 325 325 325 325 324 324 324 325
301 301 301 301 301 301 301 299 298 298 299 301 303 304 304 303 303 303 303 303 303 303 303 302 302 301 301 301 301 301 302 302 303 303 303 305 306 304 304 301 301 300 301 300 299 299 300 301 299 298 297 296 296 296 296 295 295 295 294 295 296 296 296 296 297 298 299 300 301 302 304 307 313 317 320 322 324 324 325 325 324 325 324 324 324
301 301 301 301 300 300 299 298 298 298 298 299 300 301 302 302 302 303 302 302 303 302 302 302 301 300 300 300 300 300 300 300 300 301 301 301 302 303 304 302 301 301 300 300 300 299 299 299 299 298 297 296 295 295 295 295 295 295 295 295 295 296 297 297 297 298 299 300 301 301 303 306 309 312 316 320 323 324 324 324 324 324 324 324 324
300 300 299 299 298 297 297 297 297 297 298 298 299 300 300 301 301 301 302 302 302 302 302 301 300 300 300 299 299 299 299 299 299 300 300 300 300 300 301 300 300 300 300 299 299 299 298 298 298 297 296 295 295 295 295 294 295 295 295 295 296 296 297 297 298 299 302 300 301 302 303 306 308 311 315 318 321 322 323 323 323 323 324 324 324
299 299 298 297 297 297 297 297 297 297 298 298 298 299 299 300 300 300 301 301 301 301 301 300 300 299 299 298 298 298 298 299 300 299 299 299 299 299 299 299 299 298 298 298 298 297 298 296 297 297 296 295 295 295 294 294 294 294 295 295 296 297 297 298 299 300 301 302 303 303 305 307 310 309 307 309 310 313 319 322 323 323 323 324 323
298 299 298 297 296 296 296 296 297 297 297 297 298 298 298 299 299 299 300 300 300 300 299 299 299 299 298 298 298 298 298 298 298 298 299 299 298 298 298 298 299 298 297 297 297 296 297 296 296 296 296 295 294 294 294 294 294 294 294 295 296 297 297 298 299 300 300 301 302 303 304 305 305 305 305 305 305 306 309 313 320 322 323 323 322
298 298 297 296 295 296 295 296 296 296 297 297 298 298 298 298 297 298 299 299 299 298 298 297 297 296 296 297 297 297 297 298 298 297 298 298 298 297 298 298 298 297 297 296 296 296 296 296 296 295 296 296 294 294 294 294 293 294 294 294 296 296 297 297 298 298 299 299 300 300 301 303 303 303 302 302 302 302 302 303 310 318 322 321 321
297 296 296 295 295 295 295 295 295 296 296 297 297 297 297 297 297 297 297 297 298 297 297 296 295 295 294 295 295 296 296 297 297 297 297 297 297 297 297 297 297 297 298 296 296 296 295 295 295 295 294 295 294 294 294 293 293 293 294 294 295 296 296 296 296 296 297 298 299 299 299 301 303 304 301 301 301 300 299 298 300 304 311 319 320
296 295 295 295 295 295 295 295 295 296 296 296 296 296 296 296 296 296 296 297 297 296 295 294 294 293 293 293 294 294 294 295 295 295 296 296 296 297 296 296 296 296 295 297 295 295 295 294 294 294 294 294 294 294 296 295 294 293 293 294 295 295 296 296 295 295 295 297 297 297 299 302 301 300 299 298 297 297 297 297 297 298 300 305 313
295 294 295 295 295 295 295 294 294 295 296 296 296 296 295 295 295 295 296 296 296 295 294 293 293 293 293 293 293 293 293 293 294 294 294 295 295 296 295 295 295 295 295 295 294 294 294 294 294 293 292 293 293 294 293 292 292 293 294 293 294 294 295 295 295 294 294 295 296 296 297 300 300 299 298 297 295 295 294 294 295 296 298 299 302
294 294 294 295 295 294 294 294 295 295 295 295 295 295 295 295 295 295 295 296 295 294 294 293 293 293 293 292 292 292 292 292 293 293 293 293 294 294 294 294 294 294 294 294 293 293 293 293 293 292 292 293 293 294 291 292 292 292 293 293 293 293 294 294 294 294 294 294 294 294 295 297 297 297 297 295 295 294 293 293 293 294 295 296 297
293 294 295 294 294 294 294 294 295 295 295 295 296 296 295 295 295 295 295 294 294 293 293 293 293 293 292 292 292 291 291 291 291 292 292 292 292 292 292 292 293 294 292 292 292 292 292 292 292 291 292 292 291 293 291 292 291 291 292 293 292 292 292 293 293 294 294 293 293 293 294 295 296 298 297 294 293 293 294 293 294 295 298 299 298
294 294 294 294 294 294 295 295 295 295 296 295 297 296 295 296 296 295 294 293 293 292 292 292 292 292 292 291 291 291 290 290 290 290 290 290 290 290 290 291 292 292 291 291 290 290 291 291 292 291 291 291 291 293 291 291 291 291 291 292 291 291 292 292 293 293 293 293 293 293 293 294 294 293 293 293 292 292 292 292 293 296 300 304 303
294 294 294 294 294 294 294 294 295 296 295 295 295 295 295 294 294 293 293 293 292 292 292 292 292 292 291 291 291 290 290 289 289 289 290 290 290 289 290 291 290 289 289 289 289 289 290 291 290 290 290 290 291 292 291 291 291 291 291 292 291 292 291 292 292 293 293 293 293 293 293 293 292 292 293 293 291 291 291 292 293 296 299 303 307
294 293 293 293 294 294 295 294 296 295 295 295 294 294 294 293 293 293 292 292 293 292 291 291 291 290 290 289 290 289 288 288 289 289 289 289 288 288 288 289 290 288 288 288 289 289 288 288 289 289 289 289 290 291 291 291 291 290 292 292 291 291 291 291 291 292 293 293 293 293 293 292 292 291 293 291 291 291 291 291 292 294 297 300 304
293 294 293 294 294 294 295 295 294 294 294 294 294 294 293 292 292 292 292 292 292 292 291 292 291 290 290 289 289 289 289 288 288 288 288 287 288 288 288 290 287 287 287 287 288 288 288 287 288 288 288 288 288 290 291 291 291 290 292 291 291 291 291 291 291 292 292 292 292 293 293 292 291 291 292 289 290 291 291 291 292 293 295 297 300
294 293 293 294 294 294 295 294 293 293 293 293 293 294 293 292 291 291 291 290 291 291 291 291 290 290 290 289 289 288 288 288 286 287 287 287 287 287 288 289 286 286 286 286 288 287 287 288 287 287 289 288 287 290 291 291 291 291 292 290 290 290 290 290 290 291 292 292 292 296 296 292 291 291 290 289 290 291 290 290 291 291 292 293 296
294 293 293 293 294 294 294 294 293 292 292 293 293 293 292 292 291 290 290 290 290 290 290 290 290 289 289 289 288 288 287 287 287 286 287 287 287 287 287 286 286 285 286 286 289 286 286 287 287 288 292 289 287 290 291 290 291 291 292 290 290 290 289 289 290 290 291 291 291 293 294 293 292 291 289 289 289 291 290 290 291 291 291 291 293
295 294 294 294 296 295 293 293 292 292 292 293 293 293 293 291 290 289 290 289 290 291 291 290 290 290 289 290 290 290 288 288 287 287 287 287 288 285 286 285 285 286 286 285 286 286 285 286 287 287 288 287 288 289 291 290 291 291 291 291 290 289 288 289 289 290 289 289 290 290 291 291 290 289 289 289 289 290 290 291 291 290 290 290 293
294 294 296 295 294 294 294 293 293 293 293 293 293 292 291 291 290 290 290 290 290 290 291 291 291 290 290 289 288 288 289 287 287 288 288 287 285 285 285 285 285 286 285 285 285 286 286 286 286 287 287 288 290 289 290 291 291 291 291 290 289 289 288 288 288 288 288 288 289 289 290 291 290 289 289 289 289 290 290 291 291 289 290 291 292
296 296 295 294 294 293 293 292 292 292 292 292 292 292 290 290 290 290 290 290 290 291 291 291 290 290 289 289 288 288 289 291 289 288 286 285 286 286 286 284 285 284 285 285 285 286 285 285 286 287 288 288 290 292 290 291 291 291 290 290 289 289 290 289 288 288 288 288 288 289 289 291 289 289 289 289 289 289 290 291 290 289 290 290 295
294 293 294 294 292 292 293 292 292 292 292 291 291 290 290 290 291 291 291 290 291 290 291 291 290 290 290 289 289 289 289 291 289 287 286 285 285 285 285 285 284 285 285 285 285 285 285 285 286 287 287 288 288 290 291 291 291 290 290 290 290 289 290 290 288 287 288 288 289 289 290 291 289 289 289 289 289 289 290 289 289 289 290 290 294
294 294 294 295 294 293 293 292 292 292 291 291 292 290 290 289 289 288 289 290 290 290 290 291 290 290 289 289 290 290 288 287 288 287 286 285 285 285 285 286 284 284 285 285 285 285 285 285 285 285 287 287 288 288 290 291 291 290 290 290 290 290 290 290 290 288 288 288 288 288 289 289 289 289 289 289 289 289 289 289 289 289 290 291 294
294 294 295 294 294 293 293 292 291 291 291 291 291 291 290 289 288 289 290 290 290 290 290 290 289 289 289 288 288 288 287 287 287 287 286 286 285 285 285 285 285 285 284 284 284 285 284 284 284 285 285 286 287 287 288 290 290 291 290 290 290 290 290 290 289 289 289 289 289 289 289 289 289 289 289 289 290 290 289 289 289 289 291 291 291
294 294 294 294 294 293 293 292 290 290 290 291 291 291 290 290 289 290 289 290 290 290 289 289 288 288 288 288 288 287 287 287 287 286 286 285 285 285 286 284 284 284 284 284 284 284 284 284 284 284 285 285 287 287 287 288 290 291 290 290 290 290 291 291 291 290 289 289 289 289 289 289 289 290 290 289 289 290 289 289 289 290 290 290 290
294 294 294 293 293 292 291 291 290 289 290 291 290 291 291 290 291 290 290 291 290 290 290 288 288 288 287 287 288 287 287 287 286 286 286 287 285 283 284 285 283 283 284 284 285 285 285 284 284 284 284 285 286 286 287 288 289 289 288 289 289 290 291 290 290 290 289 288 289 289 289 289 289 289 289 289 289 290 289 290 289 289 289 289 289
294 294 294 293 293 292 291 291 291 290 291 291 291 291 291 291 290 290 290 291 290 289 289 287 288 288 288 287 288 288 288 286 285 284 284 284 285 284 283 284 284 283 283 284 284 284 284 283 283 283 284 285 285 286 287 288 288 288 288 288 288 288 288 287 288 288 288 288 288 289 288 288 288 288 289 289 289 289 289 289 289 289 289 289 290
293 293 293 293 293 292 291 292 292 290 290 290 290 290 291 290 290 289 290 290 289 287 288 286 286 287 288 287 290 288 287 286 285 284 284 283 283 284 285 285 283 281 283 284 284 283 285 282 283 282 283 284 284 285 287 288 288 289 288 288 288 288 288 288 289 289 289 287 287 287 286 286 286 286 286 287 287 288 287 288 288 288 288 288 288
293 293 293 293 293 292 291 291 291 289 289 290 289 290 289 290 289 289 290 290 289 288 287 286 286 287 287 287 288 286 286 286 286 284 284 286 287 288 285 284 284 289 289 288 288 284 285 284 283 284 284 283 283 285 288 288 289 289 289 289 289 289 289 289 289 288 288 285 285 285 285 285 285 285 285 286 286 286 286 286 287 287 287 287 287
292 292 292 291 291 292 291 290 289 289 290 290 290 289 289 289 290 290 290 289 288 288 287 286 287 287 287 287 286 286 287 285 284 284 284 284 285 284 287 289 289 289 289 287 285 285 286 287 287 284 287 289 288 288 288 289 289 289 289 289 288 289 289 289 288 287 286 285 284 284 284 284 284 285 285 285 286 286 286 286 286 287 287 287 286
Wind_Speed
9 9 9 9 9 8 8 8 8 9 7 9 8 5 5 4 3 4 2 1 1 2 2 1 0 1 0 1 2 2 3 3 3 3 3 3 4 3 3 3 3 3 2 2 2 3 3 3 3 2 2 2 3 4 5 4 4 4 4 3 4 4 3 1 2 3 1 5 5 5 5 5 6 6 6 6 6 5 5 6 6 5 6 6 7
11 9 9 9 8 9 8 8 9 10 7 9 8 7 7 6 6 4 3 3 3 1 1 1 1 2 1 2 1 2 1 2 4 4 3 3 1 1 1 2 3 3 2 1 1 1 2 2 2 3 2 1 5 5 5 4 3 3 3 4 2 3 2 1 2 3 1 4 4 5 4 4 6 6 6 7 6 6 6 6 6 7 7 7 6
10 8 9 8 9 9 9 8 8 7 7 7 5 7 8 5 4 5 5 5 4 3 4 2 3 2 1 1 0 2 0 1 2 3 3 4 3 1 0 2 2 3 2 1 1 1 1 1 3 3 3 4 5 4 2 3 2 3 2 3 4 1 1 2 4 6 5 2 1 2 5 3 2 2 4 6 6 7 6 7 7 7 9 7 7
10 7 8 7 7 8 9 8 7 7 7 7 6 8 7 6 6 6 6 5 6 6 4 4 3 3 3 2 1 0 1 3 2 1 2 3 5 2 1 1 2 2 3 3 3 3 2 2 2 2 4 3 4 3 2 3 2 4 3 2 1 4 2 3 4 5 5 3 4 5 2 0 6 6 5 4 8 9 8 9 7 8 8 7 6
10 10 8 7 7 8 9 9 8 9 8 7 6 7 5 6 6 5 6 7 6 6 6 5 5 5 3 2 3 1 1 4 7 8 7 6 6 7 6 3 3 4 3 3 3 3 3 3 2 3 3 4 3 1 3 4 4 4 3 3 4 5 6 4 2 5 7 7 6 1 2 2 5 5 2 6 4 5 8 9 9 9 8 8 8
10 10 8 6 6 9 9 10 9 8 7 5 5 6 6 6 5 4 5 7 6 5 5 6 6 6 6 7 7 6 7 7 8 8 8 8 7 4 4 4 4 3 3 3 3 3 4 4 3 3 4 3 3 2 2 2 3 4 4 3 5 6 7 6 6 3 7 8 9 9 6 6 2 2 2 5 2 5 5 8 8 8 8 8 8
8 9 8 7 6 10 9 8 7 8 5 5 5 5 6 6 5 4 5 6 4 3 5 6 6 6 6 6 5 5 5 4 3 3 4 4 4 6 6 6 6 6 6 4 4 4 4 4 4 4 4 4 2 1 3 4 4 4 3 4 5 4 3 7 8 6 2 5 8 9 9 8 7 6 6 3 8 3 3 5 7 9 9 9 9
7 8 9 9 7 9 8 6 7 6 5 5 4 3 5 7 6 7 6 5 3 3 5 5 5 4 5 6 5 5 6 5 6 6 5 5 7 7 7 7 8 7 7 7 6 5 4 4 4 3 4 4 2 3 3 4 4 4 5 5 5 5 6 6 7 6 6 4 5 8 10 11 9 9 8 7 5 7 7 2 4 5 6 8 9
6 8 9 8 8 8 7 7 5 6 6 6 5 4 6 8 6 7 7 5 5 5 4 4 4 4 5 5 5 4 4 4 5 6 6 6 6 7 8 7 7 7 8 8 7 7 6 6 5 5 4 5 3 3 2 3 4 4 5 5 5 5 5 5 6 7 6 7 4 6 8 8 8 10 10 7 8 7 10 9 8 1 4 6 7
5 7 9 8 8 7 6 6 7 6 5 6 5 6 7 7 8 8 7 5 5 7 6 6 5 5 7 6 6 5 4 4 5 6 6 7 7 7 6 7 7 7 8 8 9 9 8 8 7 7 7 5 5 4 4 4 3 4 5 5 5 6 6 6 6 6 6 6 5 7 6 5 7 6 6 7 8 10 12 9 7 7 7 7 8
6 7 8 8 6 6 6 7 7 7 7 7 7 6 4 7 9 9 6 5 7 8 8 8 7 7 7 7 7 7 6 6 6 7 6 6 7 7 8 7 7 7 7 8 9 10 10 10 10 10 9 8 8 7 6 5 5 5 5 6 6 7 6 6 6 6 6 6 7 7 7 8 7 8 8 7 8 7 7 9 9 8 9 9 7
6 7 7 6 7 6 6 9 8 8 8 7 6 6 8 8 8 9 8 8 7 7 8 8 8 8 7 8 9 8 8 7 7 7 7 6 6 7 7 7 8 7 8 8 9 10 9 9 9 10 11 11 11 10 8 7 6 5 5 5 5 5 5 6 6 7 7 6 6 6 7 7 8 9 9 8 8 9 9 10 9 6 7 8 3
7 7 5 5 6 6 5 5 5 8 7 7 6 6 6 7 8 9 7 6 7 6 8 8 8 7 7 7 6 6 7 7 6 7 7 8 8 9 9 8 8 9 9 9 10 11 9 9 9 11 10 10 10 11 11 12 9 7 5 5 5 5 5 6 7 7 7 7 6 7 7 7 9 8 8 8 8 8 10 11 11 8 9 6 6
7 6 5 5 6 5 4 4 4 6 8 6 5 5 5 7 7 9 6 5 6 8 7 8 7 7 7 7 6 6 7 6 6 6 7 6 7 7 8 8 8 8 9 9 9 9 8 8 9 10 9 9 10 10 10 11 11 10 9 8 7 6 5 6 6 7 7 8 8 7 7 7 8 8 8 9 10 10 9 9 10 7 8 10 4
6 6 6 6 5 4 3 4 5 6 8 6 4 5 6 7 7 7 7 6 7 7 7 8 7 7 7 7 7 6 6 7 6 6 6 7 7 7 7 8 8 8 8 8 9 10 9 10 12 10 10 11 10 11 10 11 10 10 10 11 9 6 7 7 7 7 8 7 7 7 7 7 7 7 8 9 9 10 11 10 9 10 9 9 9
6 7 7 5 4 3 5 4 6 7 7 5 6 5 7 6 6 7 6 6 7 8 7 6 6 7 7 8 8 8 7 6 7 7 7 7 8 7 7 7 7 6 7 8 9 8 8 10 10 10 11 11 11 11 10 10 11 10 9 10 11 10 11 10 7 7 8 9 9 8 8 8 7 7 8 9 10 10 10 10 10 10 11 10 7
5 5 4 4 6 6 5 6 6 7 6 6 6 6 7 7 8 8 7 7 7 7 6 6 7 8 8 8 8 8 8 8 7 8 8 7 7 7 7 7 7 7 7 7 8 8 8 10 10 10 11 11 11 11 11 10 10 9 9 9 10 11 10 9 9 8 8 9 8 8 8 8 8 8 8 8 8 9 9 11 10 11 9 10 9
6 5 5 7 7 8 7 7 6 6 6 7 7 6 6 6 8 8 7 8 6 6 7 6 7 8 7 8 8 7 7 7 7 7 6 6 7 7 7 8 8 7 7 8 9 10 9 10 10 10 10 11 11 10 11 11 10 8 9 8 8 9 8 8 8 9 9 8 8 9 8 8 8 8 8 9 9 10 10 10 11 11 11 12 11
6 7 8 7 7 7 7 7 6 6 6 6 7 8 7 6 7 8 8 6 5 5 5 6 6 5 6 7 7 7 6 6 5 5 5 6 7 7 8 7 8 8 9 10 9 9 9 9 9 10 10 11 11 11 12 11 11 10 10 9 9 9 9 10 9 9 9 9 10 10 9 9 8 9 9 9 9 9 9 9 10 11 12 12 12
7 8 8 8 7 7 7 7 7 6 7 6 7 8 8 6 7 7 6 6 7 7 6 7 6 6 6 6 6 5 5 4 4 4 5 5 5 6 7 7 7 7 8 9 9 9 9 9 10 11 12 11 11 10 11 11 10 9 10 9 10 11 11 11 10 10 9 10 11 11 10 9 8 8 9 9 9 9 10 11 12 12 11 11 11
9 9 8 9 8 8 7 7 6 6 5 5 6 8 7 6 7 6 8 7 7 6 7 6 6 7 8 7 6 5 5 4 4 3 4 4 5 6 6 5 6 8 7 9 9 9 9 9 11 11 11 11 11 12 11 11 11 11 10 10 11 11 12 11 11 13 11 11 11 11 12 12 9 10 9 9 9 10 11 9 9 11 12 11 11
9 9 9 8 8 8 7 7 5 6 6 6 5 8 8 6 6 6 6 6 6 7 6 6 6 7 8 7 7 6 5 5 4 4 3 3 4 5 4 5 6 6 7 8 9 8 7 9 9 10 10 10 11 11 11 10 11 12 12 9 11 13 12 12 11 12 12 10 11 12 13 13 12 11 10 11 11 11 10 9 10 10 9 11 12
10 9 8 7 8 7 8 8 6 6 5 5 6 7 7 6 6 5 7 6 6 5 5 6 7 7 7 6 7 6 6 6 7 7 8 6 4 3 4 5 5 5 6 7 8 8 8 8 9 9 10 10 11 10 10 11 12 13 13 13 12 12 12 12 12 12 12 11 11 11 13 13 11 13 12 11 11 12 11 11 12 10 10 12 12
9 9 8 8 7 7 8 7 6 6 6 6 5 6 6 6 5 5 7 6 6 5 6 6 6 7 7 7 7 6 7 6 7 7 8 8 8 7 6 6 5 5 6 7 7 8 8 9 9 10 10 10 11 10 11 11 12 13 13 14 14 12 11 11 12 12 11 10 11 11 12 12 12 13 13 12 11 10 10 8 10 10 11 13 12
9 10 11 8 8 8 7 7 6 5 5 6 7 6 6 5 5 5 5 5 5 5 5 5 5 6 6 6 6 5 5 6 6 6 7 6 6 6 6 7 7 7 6 6 7 7 8 9 9 10 10 10 11 11 11 12 11 12 14 14 13 12 12 12 12 12 13 13 12 12 12 12 10 12 12 12 11 13 12 11 11 11 10 10 10
10 11 11 10 7 6 6 6 6 6 7 6 7 7 6 5 5 4 5 5 5 5 5 5 5 5 5 5 4 4 4 5 5 5 5 5 6 6 5 6 6 7 7 7 7 7 8 7 8 8 9 9 10 10 11 11 12 12 11 12 12 11 11 11 12 12 12 12 10 10 11 10 11 12 13 14 15 17 15 12 11 11 10 11 12
12 12 9 7 7 7 6 6 6 6 5 6 7 7 7 7 7 6 6 6 5 6 5 5 5 5 4 4 5 4 5 4 4 4 4 5 5 5 6 6 6 6 7 7 7 7 7 7 7 7 8 9 10 9 10 11 12 12 12 10 12 11 12 11 11 12 12 12 13 12 12 12 11 11 11 11 12 15 13 16 13 11 10 10 10
10 11 11 10 8 7 7 6 7 7 7 7 6 7 7 7 7 6 6 6 5 6 6 6 5 5 5 5 5 5 5 5 4 4 4 4 5 5 5 5 5 7 7 7 7 7 6 6 7 7 8 8 9 10 11 12 12 13 11 11 10 12 12 12 13 13 13 12 13 13 12 12 12 12 13 12 11 12 13 14 13 13 11 10 10
12 11 9 10 9 7 7 7 7 8 9 8 8 7 7 7 6 6 7 6 5 7 6 6 6 6 5 5 5 5 5 6 6 6 6 6 6 5 6 5 5 5 6 6 5 5 6 7 7 7 7 8 9 10 10 12 13 13 11 11 10 12 12 13 13 14 14 13 13 13 12 13 15 19 21 18 15 14 11 13 14 13 15 13 10
11 10 9 9 9 8 7 8 8 9 8 8 7 7 7 7 6 6 7 5 7 6 6 6 6 5 5 5 6 5 6 6 7 6 6 6 6 6 6 6 6 5 5 5 5 6 6 7 7 8 7 7 8 8 17 22 19 14 11 9 9 12 12 12 13 13 13 14 14 13 14 21 21 22 21 19 18 20 22 15 11 12 14 13 13
9 9 9 8 8 8 8 8 8 9 9 8 7 6 6 6 6 7 7 5 7 6 6 6 6 5 5 5 6 6 6 7 6 6 6 6 6 6 6 6 6 6 6 6 6 7 7 7 7 7 8 8 8 10 20 18 19 22 14 9 10 10 10 10 11 12 13 14 13 14 14 16 17 18 19 21 20 22 22 24 25 21 15 12 11
10 9 9 9 8 8 8 9 8 8 9 8 8 7 7 6 6 7 6 5 6 5 6 5 5 5 6 6 6 6 7 7 7 7 6 5 5 5 5 5 6 7 7 6 7 7 6 6 7 7 7 7 7 15 18 19 19 19 18 11 8 9 10 10 10 11 11 12 13 14 13 12 12 17 18 16 19 23 23 24 24 23 22 20 16
10 10 10 9 9 8 8 8 7 8 9 8 9 9 8 6 7 5 6 7 6 5 5 5 5 5 6 6 6 7 7 7 6 5 5 5 5 5 6 6 7 6 6 8 7 8 7 7 6 7 7 7 6 14 17 19 18 19 19 14 8 9 10 10 10 11 12 12 13 13 14 12 11 22 18 15 17 19 23 25 24 23 20 17 16
10 10 11 9 8 7 7 8 8 8 8 7 9 9 7 6 7 6 7 6 6 5 5 5 5 6 6 6 6 6 6 5 5 5 4 5 6 6 6 6 6 6 7 7 7 8 7 7 7 7 6 7 7 13 17 18 18 19 18 13 8 10 10 10 11 11 11 12 14 13 13 14 14 16 15 18 19 18 18 17 17 15 15 17 16
12 11 10 9 9 8 7 8 7 8 7 9 7 7 6 6 6 7 6 7 5 5 5 5 5 5 5 5 5 5 5 4 4 4 5 6 7 7 7 7 6 6 6 6 6 6 6 6 7 6 6 7 7 14 16 18 18 19 17 11 9 9 9 10 10 10 12 13 14 12 14 14 15 15 15 21 20 18 18 16 15 16 15 15 14
11 12 10 10 10 11 11 9 6 8 8 9 8 7 8 6 5 6 5 6 6 5 5 4 5 4 4 4 5 4 4 4 5 5 6 6 6 6 6 5 6 7 6 5 6 5 6 7 7 7 7 8 8 15 17 18 18 18 17 9 8 9 10 10 10 11 13 12 12 13 14 15 16 17 20 25 23 19 17 16 16 16 15 15 15
10 11 10 9 9 9 8 7 7 8 10 9 7 7 7 6 5 5 6 5 6 6 5 4 4 4 4 3 4 4 4 4 4 5 5 5 5 6 5 5 6 6 7 7 6 6 5 6 7 7 7 8 8 13 17 17 17 19 13 9 9 9 10 10 11 11 11 12 12 15 15 14 16 17 22 25 24 24 15 16 16 17 15 14 15
10 7 8 8 7 7 7 10 9 8 9 8 8 8 7 6 5 5 6 6 7 5 4 4 4 4 3 3 3 4 4 4 4 4 4 4 4 4 5 4 5 5 6 6 5 6 6 5 6 7 7 8 8 12 16 17 17 18 14 9 9 9 10 10 10 10 10 11 14 24 21 16 16 17 24 24 24 22 16 16 16 18 17 15 15
11 11 10 9 9 10 9 9 9 9 7 8 9 8 8 7 5 5 5 6 6 5 5 5 4 4 3 3 3 3 4 4 4 4 3 4 4 4 3 3 4 4 4 5 6 6 6 6 6 6 11 10 8 10 15 16 17 17 14 9 9 9 10 11 11 11 10 11 12 15 23 19 18 21 24 23 23 21 15 15 16 16 16 16 14
11 9 10 10 9 9 9 9 9 8 7 9 9 8 7 7 5 5 6 6 6 7 6 5 4 4 3 2 2 4 4 4 4 4 4 4 2 3 4 4 4 3 4 5 5 6 7 7 7 8 8 7 9 10 11 17 16 17 16 11 8 10 11 11 10 12 13 12 12 12 14 19 24 24 23 23 22 22 17 14 14 15 16 17 14
12 11 10 10 9 10 10 9 8 7 7 8 9 9 7 6 6 5 6 6 5 5 5 5 4 4 3 3 3 4 5 4 4 4 3 3 3 3 3 3 4 5 4 6 6 6 7 7 7 7 8 8 8 9 11 16 16 17 17 14 8 9 9 9 9 10 10 11 12 12 11 18 24 24 23 23 22 22 22 15 12 15 15 18 17
11 11 10 9 9 9 8 7 6 7 7 7 9 9 7 7 6 7 7 5 5 5 5 5 5 4 4 3 3 3 4 4 4 4 4 3 2 2 3 3 4 4 6 6 5 6 6 7 7 7 8 9 10 12 10 14 17 17 16 16 9 9 11 9 10 9 11 11 12 12 12 18 24 23 23 23 23 22 22 14 17 24 24 23 16
13 11 10 11 10 10 9 8 6 6 6 7 10 8 7 6 8 8 6 5 5 4 5 5 5 4 4 4 3 4 4 3 3 3 4 3 2 3 4 4 5 5 6 7 7 7 7 7 7 8 7 8 9 9 14 13 16 17 16 16 16 12 16 11 9 10 11 11 10 12 13 22 22 23 23 22 20 22 17 17 25 24 24 23 17
11 11 11 12 11 9 9 6 5 5 6 6 10 8 6 7 7 4 4 4 4 4 5 5 5 5 4 4 3 3 4 3 4 3 3 4 3 3 3 5 5 6 6 7 7 7 7 8 8 9 8 8 8 8 11 15 14 16 15 16 17 18 18 12 9 8 9 10 10 12 15 22 21 22 22 21 19 20 18 23 23 25 23 20 14
14 12 11 11 12 11 9 6 5 6 5 6 7 8 6 6 4 3 5 6 5 5 5 5 4 4 4 4 3 3 3 3 2 3 4 3 3 2 5 4 5 6 6 6 6 6 6 6 7 8 8 8 8 8 8 11 15 14 15 15 17 18 18 17 12 9 10 10 14 19 20 20 20 21 21 19 17 19 23 22 23 23 21 13 14
12 11 11 11 10 9 9 8 4 5 5 5 5 8 7 6 4 4 5 6 6 5 5 5 4 4 4 4 4 3 3 2 2 2 3 2 3 2 4 4 6 6 5 6 6 6 6 6 7 7 8 8 8 7 8 9 8 10 10 14 17 16 17 17 14 11 16 17 17 18 18 18 16 17 14 13 13 15 20 22 22 20 14 14 13
14 12 11 10 10 9 8 7 5 4 6 5 5 5 6 5 5 5 6 6 6 6 5 4 4 4 4 4 5 4 3 2 2 2 2 1 1 3 3 3 4 5 4 5 5 5 6 6 7 7 7 7 8 8 8 8 8 8 8 9 10 11 13 13 11 10 11 11 13 13 13 15 14 18 17 15 15 16 15 15 15 14 14 13 13
11 11 11 10 10 9 8 7 7 5 6 6 6 5 5 5 4 5 6 7 6 5 6 5 5 4 4 4 4 6 5 3 2 2 3 2 1 1 3 2 2 2 4 5 4 5 6 6 7 7 7 8 8 8 8 9 9 8 8 9 8 9 10 9 10 10 10 9 9 10 12 11 11 12 13 12 13 13 13 13 14 13 14 14 16
12 10 11 11 9 9 8 8 8 5 5 6 6 5 5 6 5 4 6 8 6 5 5 4 4 5 4 4 5 4 4 5 3 1 1 2 4 2 2 0 1 2 1 1 3 4 4 4 4 5 6 7 7 8 8 9 11 13 11 9 9 9 10 10 12 15 10 9 8 10 11 12 12 13 13 13 13 14 14 14 15 15 13 13 13
11 10 10 10 9 9 8 8 7 5 5 6 6 5 5 4 4 4 7 8 6 5 5 4 4 5 5 5 4 4 3 3 4 4 2 0 3 4 3 1 1 2 4 4 3 2 4 4 5 5 1 3 5 7 11 15 15 16 16 17 15 16 16 14 16 17 9 7 9 10 10 11 12 12 13 13 13 13 13 13 13 14 14 13 13
10 11 10 10 8 7 7 7 6 4 5 6 5 5 4 4 4 4 7 6 5 6 5 4 4 5 4 5 6 5 5 3 3 3 3 2 1 2 3 6 6 7 5 6 4 4 5 5 2 4 7 9 10 12 14 14 15 16 16 16 16 16 18 18 17 11 10 9 10 10 10 10 10 10 11 11 11 12 12 12 12 12 11 13 12
Wind_Direction
93 85 86 88 81 77 75 77 74 62 64 76 80 71 75 75 72 64 50 134 260 288 324 344 49 347 356 235 249 277 290 303 307 297 295 288 307 330 338 339 333 320 294 284 280 297 299 269 249 253 224 188 198 235 229 222 221 223 237 227 235 263 288 99 84 91 37 297 286 274 271 214 216 210 214 215 214 211 199 200 204 198 205 206 207
96 85 85 83 82 80 75 73 69 66 51 60 64 83 75 53 55 65 58 55 45 17 254 207 196 176 189 273 292 276 315 348 317 319 309 302 307 291 339 324 315 310 315 331 323 287 285 283 267 265 224 236 245 225 217 217 220 231 241 283 247 258 295 74 80 91 264 240 288 320 307 289 229 212 213 218 215 210 202 203 204 206 208 208 202
86 84 83 82 83 83 81 74 73 71 70 76 75 71 79 63 41 50 47 45 36 20 35 28 359 32 86 299 68 326 280 241 249 282 308 314 315 321 305 301 306 317 328 315 278 258 248 267 268 261 239 218 231 243 248 254 252 257 255 259 310 347 231 196 175 180 238 168 163 334 292 319 336 288 248 232 216 212 202 207 206 212 216 204 197
97 81 77 71 79 89 84 78 76 71 59 57 64 77 63 54 41 42 44 42 33 17 20 14 43 78 78 82 99 122 278 303 316 305 349 341 354 12 10 338 343 338 337 340 343 335 310 274 248 234 247 210 246 281 313 307 294 276 254 252 243 280 266 276 188 193 204 107 290 224 258 85 296 269 256 250 207 210 202 212 203 213 215 209 189
103 89 76 71 76 78 84 82 72 66 56 51 52 62 70 58 38 39 43 43 33 17 21 24 28 28 26 78 102 70 356 10 21 15 7 3 8 15 355 345 349 352 348 351 353 340 330 311 286 253 235 209 213 226 261 263 265 250 245 245 236 249 271 262 245 191 209 195 195 223 301 264 234 270 333 276 198 204 218 215 214 210 207 206 203
106 101 90 82 92 84 76 74 71 66 56 49 49 65 72 68 52 40 52 52 33 10 21 40 40 39 33 31 23 21 23 17 18 6 358 7 358 334 350 9 11 10 1 354 351 344 342 341 325 298 279 248 221 213 211 240 263 273 262 252 256 236 243 258 267 216 212 209 216 223 227 243 272 322 20 282 326 232 217 217 218 215 210 206 206
94 102 98 85 69 78 71 75 79 74 64 61 56 62 69 69 57 54 56 54 31 21 40 49 47 43 49 54 48 34 25 18 359 359 7 360 357 6 3 7 18 18 15 14 4 348 342 338 328 313 293 288 254 216 252 259 265 265 264 239 248 260 219 247 252 262 231 226 224 234 247 245 229 230 240 298 288 309 245 218 220 215 210 208 210
102 100 98 87 73 77 77 79 81 83 75 64 64 68 79 71 48 43 42 34 8 36 49 48 67 55 65 56 48 37 26 7 359 358 3 4 13 8 6 13 17 25 21 21 16 8 358 347 335 317 308 293 266 239 235 245 252 260 252 254 252 240 244 245 262 261 246 240 202 235 237 244 242 239 242 246 273 286 281 275 249 228 209 218 215
102 107 97 94 91 86 84 73 68 67 64 64 56 59 60 65 61 50 39 19 12 19 38 35 55 63 61 64 58 39 31 16 1 3 358 354 15 9 11 10 15 16 18 18 14 13 13 2 355 353 340 329 301 276 255 244 245 258 272 270 260 251 235 242 247 263 261 259 234 239 240 238 242 238 235 221 235 246 261 255 259 245 236 228 217
86 96 100 97 95 99 96 83 64 68 70 72 59 60 59 62 56 50 31 25 23 35 40 38 32 48 63 53 57 45 31 27 25 16 2 357 9 7 7 10 7 13 14 14 12 9 8 5 4 6 2 346 335 308 295 282 264 259 260 266 268 270 263 260 244 247 252 259 251 257 258 237 240 246 228 221 228 226 249 249 235 224 227 225 209
107 97 93 97 93 89 90 88 78 61 55 55 53 56 70 66 63 53 40 41 43 42 45 50 50 50 58 58 58 51 39 38 34 23 9 11 11 2 2 0 8 14 13 15 14 10 7 9 5 6 4 357 348 345 331 314 300 282 274 269 269 270 272 266 255 246 250 250 245 249 244 237 236 241 242 230 231 239 238 250 249 235 236 245 216
99 89 93 89 78 58 60 76 75 68 60 55 55 52 49 55 62 61 40 41 42 44 49 47 50 48 50 50 53 46 41 41 36 26 10 10 9 11 5 5 7 5 13 14 11 8 9 9 5 10 12 3 358 351 341 328 312 300 291 288 287 280 277 275 268 269 263 257 254 251 251 243 241 245 253 246 237 241 239 251 247 238 246 242 235
109 105 99 91 84 81 75 75 83 88 80 65 57 57 62 63 64 65 47 41 48 47 50 44 46 44 47 51 50 46 45 40 32 30 15 17 11 15 13 12 5 6 7 7 7 6 3 5 10 20 12 8 3 2 354 346 336 315 297 295 290 291 284 281 277 270 265 263 265 253 251 248 247 246 248 249 248 246 242 247 247 230 241 239 232
115 112 112 98 95 103 101 102 91 90 88 73 69 69 67 68 68 73 60 49 52 50 45 49 45 47 51 55 51 47 43 39 32 33 24 27 21 21 18 14 11 10 4 10 359 1 1 4 20 22 18 11 10 3 360 358 353 341 328 314 306 298 292 286 282 281 276 271 266 264 252 247 249 250 248 249 251 248 247 247 263 248 233 245 229
118 120 118 116 117 125 123 90 79 81 83 71 46 47 60 65 69 76 67 47 54 50 48 52 48 46 48 50 48 47 44 37 33 30 29 29 23 26 21 19 18 13 11 3 3 5 3 17 19 18 14 11 10 9 6 359 355 349 348 339 324 301 292 289 284 282 284 284 280 275 272 260 254 249 246 247 245 247 252 251 242 250 242 237 233
118 123 123 126 129 96 65 78 85 74 70 70 60 59 68 73 76 72 68 57 53 55 52 54 53 52 49 51 47 46 43 39 34 31 33 33 30 26 23 19 16 10 8 8 9 8 8 23 17 15 15 12 10 6 6 3 357 355 349 347 343 348 337 328 311 294 286 277 271 270 266 262 257 254 247 249 248 244 245 248 248 244 248 250 231
128 130 128 100 73 81 91 86 89 84 75 71 68 73 86 90 86 74 65 60 58 58 58 57 58 58 54 56 51 48 44 41 38 37 36 33 32 28 24 17 13 13 11 11 11 13 10 27 17 12 13 8 5 3 359 356 356 352 347 345 345 338 331 328 323 317 302 289 278 269 268 271 265 259 255 251 252 251 247 247 244 244 240 247 248
138 117 90 92 98 93 86 79 74 81 83 75 71 80 81 83 83 81 67 66 58 59 56 51 59 62 61 58 54 50 48 44 42 43 39 39 33 30 26 25 18 9 15 16 14 16 17 23 21 13 8 8 3 358 357 354 346 344 341 337 328 326 324 321 323 322 314 306 292 284 268 265 260 253 252 251 250 249 248 245 245 242 237 239 239
118 99 101 100 97 93 88 86 79 74 72 77 83 83 80 75 74 77 77 71 69 63 60 52 54 67 66 63 59 52 48 48 45 44 42 44 39 35 37 32 26 22 23 18 16 17 15 21 23 15 10 6 2 3 356 351 349 340 339 333 332 334 329 324 326 322 314 310 307 300 289 272 264 258 256 256 253 253 251 248 245 241 238 237 244
111 111 112 107 98 96 93 91 83 71 70 69 87 88 82 78 80 81 74 69 61 53 51 53 47 59 61 56 49 48 44 44 40 45 46 46 43 41 37 35 30 28 26 24 22 17 13 26 23 19 13 8 4 1 356 353 347 345 341 335 335 335 330 325 321 324 320 317 313 308 302 298 288 276 265 259 256 252 252 252 250 247 245 234 233
119 120 120 114 111 104 95 87 78 70 63 63 77 90 88 82 79 76 80 69 61 56 58 55 55 54 56 50 39 28 24 24 28 33 54 51 48 45 39 33 30 31 25 27 25 19 18 27 27 22 14 10 3 1 359 353 351 343 342 339 338 339 334 329 325 321 323 323 318 313 308 302 301 294 290 281 271 259 251 245 246 246 247 242 238
125 125 122 118 110 106 99 83 70 68 60 67 81 94 88 83 85 81 71 67 69 59 61 57 56 55 55 50 44 36 28 22 23 17 42 56 58 53 45 39 37 26 29 27 24 20 22 27 26 19 14 8 3 2 357 354 349 346 344 342 339 337 335 331 328 324 324 323 318 313 308 308 304 296 290 285 279 271 256 250 248 247 244 244 234
127 123 117 114 113 111 103 95 84 79 74 75 78 86 91 91 85 82 83 75 75 73 64 63 59 58 54 50 48 42 37 33 36 34 34 26 29 53 51 46 38 33 31 32 25 22 21 28 26 20 12 9 2 358 356 355 352 349 344 341 339 337 333 328 326 320 317 315 315 315 310 307 305 301 294 287 284 275 262 252 250 245 248 248 242
120 121 116 115 113 108 101 97 90 79 75 77 81 81 80 81 88 87 86 83 76 71 66 61 58 52 48 49 47 43 45 39 41 36 39 35 30 25 31 33 31 31 34 27 28 22 18 22 25 17 14 8 1 356 355 356 352 351 348 343 340 333 324 319 317 313 308 310 308 310 308 305 303 300 301 298 291 283 271 265 264 256 251 250 244
131 127 120 115 112 109 109 106 100 94 84 81 79 82 85 80 78 81 78 76 75 69 68 62 61 56 46 46 42 41 47 47 47 43 43 39 35 34 34 35 28 28 26 26 25 24 26 23 22 16 10 9 1 355 355 354 350 352 352 348 339 330 327 323 317 313 316 313 305 300 298 300 295 298 303 307 305 297 288 281 274 273 268 260 253
135 125 120 123 122 117 107 103 100 98 98 93 91 89 87 84 74 80 83 74 68 65 63 62 54 58 49 44 39 38 40 41 43 42 41 40 38 35 32 32 32 28 26 27 28 23 29 22 20 15 13 9 1 358 357 352 349 348 345 344 344 335 329 325 327 322 322 318 299 298 302 303 318 334 334 331 330 323 312 289 274 270 267 265 263
136 127 127 122 115 113 109 100 99 97 91 95 98 94 92 86 75 72 78 77 70 67 60 60 52 53 48 39 35 32 32 33 28 26 28 30 32 31 32 34 29 29 29 27 24 27 22 20 16 14 15 9 2 359 359 356 352 348 339 326 342 342 342 339 332 332 332 331 332 331 329 328 328 328 328 330 328 327 325 316 298 280 271 270 271
130 129 135 131 126 115 107 104 100 97 95 90 85 90 89 87 84 74 70 72 69 73 66 61 58 51 44 32 31 28 26 29 31 27 23 22 25 27 28 28 29 31 29 24 22 21 17 16 13 13 10 9 4 2 2 -0 357 352 343 340 334 348 346 347 343 339 336 333 334 333 329 329 332 334 333 325 325 329 328 321 316 304 281 271 268
133 135 137 133 128 124 115 107 108 106 102 99 96 89 84 77 76 75 75 76 80 75 67 62 57 54 44 41 38 37 36 37 39 36 29 23 23 22 22 20 23 24 21 19 12 13 14 14 11 9 5 7 10 6 6 0 354 351 349 344 336 349 348 347 345 342 338 335 336 335 330 329 333 335 330 326 324 326 326 324 319 320 312 294 272
138 141 140 133 130 124 119 115 115 113 111 105 99 96 93 93 85 81 81 81 82 73 73 65 60 53 46 44 44 40 40 41 42 39 33 30 25 22 20 19 18 15 12 10 10 7 12 12 8 5 4 6 9 9 1 359 1 357 346 347 349 356 350 345 344 342 340 339 336 335 330 330 335 337 335 330 331 329 327 319 304 307 308 306 296
132 135 135 133 127 122 119 118 121 120 117 113 111 107 100 92 90 88 89 88 87 80 69 71 65 56 56 51 50 46 46 45 44 42 37 31 25 20 20 18 15 13 10 8 6 10 9 5 7 3 2 3 5 4 357 357 357 357 355 345 346 344 343 341 340 341 339 336 337 336 332 331 336 339 338 335 331 329 324 319 316 309 294 282 287
138 137 136 133 129 127 126 127 128 125 120 118 115 111 103 101 98 96 96 89 85 82 79 71 67 63 59 57 55 53 50 46 46 42 39 33 26 22 18 13 13 11 7 4 8 3 2 1 2 1 1 359 359 2 357 357 356 355 355 348 339 341 340 337 337 338 336 338 337 336 334 333 335 339 338 333 331 327 322 318 314 309 304 292 269
140 141 141 140 139 139 134 132 131 128 123 127 123 116 117 120 111 114 99 89 90 90 84 75 68 69 64 62 60 61 58 54 50 47 42 37 31 27 19 13 10 4 6 13 3 0 356 353 358 360 356 354 349 0 358 356 354 353 349 348 343 341 341 337 335 336 337 339 338 335 335 335 335 338 338 335 333 327 324 319 311 309 301 290 279
136 140 142 142 135 132 134 138 136 130 125 132 126 125 130 124 118 108 100 101 102 92 91 86 77 74 74 70 68 67 64 59 52 49 42 35 31 24 16 9 8 4 10 7 5 4 358 357 354 353 347 346 346 356 357 356 354 352 348 348 344 342 340 337 336 337 340 341 340 336 334 334 337 337 335 337 334 328 324 318 315 311 308 303 293
141 140 142 142 139 131 129 126 127 125 122 116 114 119 121 114 115 110 110 110 109 107 98 96 90 85 83 80 78 75 72 61 49 44 40 37 29 21 17 7 6 4 5 0 360 359 358 356 347 346 347 348 344 348 355 355 353 352 347 351 343 342 341 340 339 339 344 342 341 338 338 337 336 336 336 337 332 327 324 318 311 311 306 304 296
147 142 145 143 142 142 140 139 134 121 121 124 132 135 128 135 125 122 120 117 117 111 108 104 100 100 100 101 98 90 79 69 59 48 47 38 33 26 21 3 5 2 2 3 1 357 357 352 345 348 348 348 342 346 353 354 354 354 349 353 346 346 346 344 342 343 346 346 343 340 341 341 340 337 336 334 332 330 324 321 318 312 309 304 297
137 139 145 144 139 135 136 129 128 125 123 129 140 136 133 127 119 126 120 121 116 117 121 120 123 130 126 125 117 107 94 81 67 61 51 43 37 22 17 8 14 7 4 5 2 354 345 349 350 351 346 347 343 344 349 352 355 355 354 354 350 350 350 347 346 342 344 345 344 344 346 343 339 336 335 333 332 335 329 327 322 319 312 307 301
133 127 126 129 129 123 127 126 125 123 129 137 142 138 130 123 127 131 117 115 117 129 141 139 149 155 151 142 131 114 102 84 71 71 60 45 37 28 24 8 22 2 4 352 344 352 349 354 354 351 345 349 339 338 347 351 355 358 357 355 351 353 350 347 344 343 345 343 344 346 348 345 339 336 335 333 334 338 335 328 326 324 320 314 309
134 135 132 133 135 134 133 122 119 122 138 139 137 132 126 131 138 136 127 122 130 145 151 156 170 174 158 137 119 102 100 91 82 65 61 51 40 38 357 4 4 1 356 341 352 358 355 358 356 351 352 357 342 341 346 350 353 356 360 353 353 354 354 353 349 346 348 344 340 344 345 341 341 337 334 335 336 342 336 331 328 324 319 313 305
133 130 133 133 129 121 122 123 126 138 146 133 132 131 134 139 149 139 132 145 158 165 169 164 165 164 154 131 114 102 95 98 94 76 59 42 20 22 7 3 357 6 358 357 354 1 3 358 351 354 356 357 349 345 345 348 352 352 356 355 349 358 357 349 349 352 348 345 345 340 338 338 341 339 338 337 339 342 342 329 332 330 322 317 310
133 133 131 130 135 132 136 138 138 142 135 130 127 125 133 142 146 141 156 172 173 167 161 163 158 147 136 117 98 105 103 91 95 99 81 49 24 30 8 10 6 0 12 13 10 5 5 359 354 355 355 357 356 349 342 347 350 351 350 356 348 354 353 347 344 347 349 344 343 342 338 338 340 340 340 340 341 344 345 341 332 328 319 309 310
127 133 133 130 129 127 127 128 138 139 136 130 125 123 135 143 143 159 182 177 163 164 159 153 150 151 151 137 122 107 98 102 93 87 81 51 7 15 18 15 8 15 23 20 13 13 9 1 356 358 359 354 352 351 350 348 352 351 348 347 351 348 350 347 347 348 349 349 344 342 340 338 339 341 342 342 343 347 348 352 340 335 331 336 343
137 136 137 133 132 137 142 149 153 139 132 128 120 123 136 143 152 181 178 166 165 157 155 154 148 151 161 160 145 115 105 101 96 99 99 75 22 24 13 20 24 24 27 25 17 10 10 10 5 2 358 356 354 348 353 353 351 352 349 348 348 350 354 360 355 350 351 342 340 339 336 341 341 344 345 343 343 350 355 350 346 347 345 347 356
135 138 141 135 137 140 143 152 146 133 129 130 122 126 132 138 172 182 154 154 151 156 145 148 153 158 160 162 149 114 103 109 119 106 92 82 40 21 28 24 25 31 27 25 13 6 11 16 10 359 359 355 352 351 346 349 349 348 348 350 350 355 0 2 357 355 346 342 341 342 340 340 345 347 346 345 345 356 356 353 355 354 354 356 4
142 145 141 136 141 144 144 145 142 135 132 127 125 128 134 138 174 150 161 149 153 148 143 150 150 152 153 148 128 126 122 114 114 116 105 86 47 34 45 14 32 29 29 27 7 6 15 9 9 5 353 351 349 347 346 343 344 344 347 348 351 356 357 0 0 350 351 344 340 340 342 345 347 350 349 348 352 356 356 359 359 0 3 8 6
140 142 142 139 138 139 139 137 133 138 132 134 137 133 141 164 152 153 147 140 145 145 143 151 141 143 149 132 123 113 106 111 104 95 113 118 105 65 64 34 37 32 27 24 6 9 11 9 10 359 353 347 344 347 347 343 343 343 342 347 351 354 356 354 354 350 345 342 341 343 343 346 349 354 354 357 356 354 355 1 2 4 10 10 11
147 148 138 135 138 138 139 132 132 149 139 150 148 157 152 149 153 155 137 129 128 132 135 141 151 153 139 127 129 135 128 116 106 90 68 80 90 79 70 58 47 37 22 18 7 9 6 2 6 354 347 345 350 349 350 348 349 346 344 345 353 352 351 350 351 348 347 343 339 343 346 344 350 350 356 355 357 358 2 4 7 7 10 11 11
143 142 141 140 143 145 143 137 143 159 145 146 150 156 152 157 156 143 122 110 114 130 142 157 163 152 140 137 134 140 145 154 163 146 133 94 65 103 92 81 58 37 32 11 7 2 360 354 346 345 347 351 350 350 353 352 346 350 348 349 352 355 352 349 346 345 338 334 331 335 350 357 355 359 2 4 6 5 5 5 7 8 10 10 11
143 148 145 148 149 146 147 143 154 162 150 139 143 151 156 161 154 144 119 107 113 120 125 134 144 125 131 148 145 152 160 163 170 161 215 194 164 172 172 243 245 183 164 41 353 333 337 326 328 336 354 348 347 349 337 331 350 355 360 356 354 357 353 350 345 345 339 335 343 355 0 359 3 2 3 5 4 4 4 4 7 10 9 10 11
148 148 149 144 148 147 150 152 160 161 150 141 148 160 170 159 143 138 118 116 127 123 116 129 133 118 124 133 145 152 165 172 173 175 160 254 248 209 197 164 278 268 233 240 223 267 288 303 329 319 328 347 319 307 327 349 355 357 357 359 356 355 356 353 348 345 347 349 357 359 2 0 359 2 3 5 4 5 4 3 4 7 9 10 11
147 142 146 144 148 149 147 150 157 158 150 144 150 161 162 163 147 136 119 125 129 116 114 127 116 115 129 135 145 159 178 179 196 177 167 176 282 304 259 237 238 270 288 306 316 301 320 318 308 307 325 338 340 345 351 353 357 356 356 356 357 357 356 352 351 353 357 6 359 5 0 1 360 -0 5 1 2 5 6 5 5 6 10 8 9